map of IKT home
Great Circle Mapper logo
IKT - Airport
Location
City:  Irkutsk, Irkutsk, Russian Federation (Russia)
ICAO / IATA:UIII / IKT

Details
Type:Airport (Aerodrome, Airfield)
Use:Public/Civil
Latitude:5216'05"N (52.268028)
Longitude:10423'20"E (104.388975)
Datum:WGS 1984
Elevation:1675 ft (511 m)
Runways:1
Longest:10384 × 148 ft (3165 × 45 m), paved

Time
Time Zone:UTC+8 (DST+9)

Weather
METAR:UIII 250430Z 31010G14MPS CAVOK 07/M06 Q1013 NOSIG RMK QFE715/0953 30850342
TAF:UIII 250150Z 2503/2603 30005G10MPS 9999 SCT020CB BKN100
BECMG 2512/2514 VRB02MPS NSC

Related Locations
Nearby:
Farthest:PNT: 12299 mi / 19793 km
Puerto Natales [Teniente Julio Gallardo], MA, CL

Find:

   beyond  
but within

Other Information
Maps:
NOTAMs:
Links:
Sources:

  
flag of Russian Federation (Russia)   

Sectional Chart

Flight Planning
at skyvector.com

Satellite Image

Google Maps Satellite View

 

Copyright © 2004-2014 Karl L. Swartz. All rights reserved.
The Great Circle Mapper name and logo are trademarks of the Great Circle Mapper.
All other trademarks mentioned herein belong to their respective owners.
Please see credits for attibutions and further copyright information.

  Follow gcmap on Facebook Follow gcmap on Twitter

hCard Microformat

Geo Microformat